Wind_Speed
19 19 18 18 18 11 6 9 16 20 22 19 21 20 20 21 18 18 13 14 18 17 15 14 13 13 12 11 9 10 10 10 9 9 8 14 20 24 20 16 10 12 17 22 13 17 10 12 31
23 24 24 23 21 14 10 18 21 20 18 17 22 22 22 20 19 19 17 20 20 19 19 18 17 16 15 14 12 11 11 9 9 9 6 7 11 15 22 21 25 23 16 14 19 18 8 11 9
28 28 28 28 24 16 16 23 25 24 23 23 23 23 24 21 23 25 24 23 23 22 22 21 21 20 18 18 16 14 12 9 7 6 3 4 7 13 20 21 19 21 18 19 16 12 7 11 10
32 31 32 32 24 19 23 24 33 29 29 27 27 27 24 23 26 30 29 24 25 25 23 24 24 24 22 21 20 18 14 11 8 7 7 8 7 12 17 18 21 21 20 20 11 14 11 11 11
36 35 36 33 27 24 26 25 34 35 32 31 34 32 29 27 26 30 30 29 29 28 27 26 27 27 25 23 22 21 18 15 12 11 9 10 11 13 16 17 19 22 24 25 22 20 19 12 12
38 39 40 35 30 26 24 30 36 41 38 33 35 37 33 29 30 30 28 29 30 29 29 30 29 29 28 26 25 24 21 18 17 15 16 14 12 13 14 16 15 17 23 25 24 21 21 21 21
37 41 42 39 29 25 24 33 38 41 43 36 36 40 37 30 33 34 32 31 32 30 30 28 27 27 28 28 25 25 24 21 21 21 21 18 14 13 13 13 13 12 15 21 21 24 23 22 24
36 41 39 33 27 25 30 38 39 39 43 40 42 42 34 35 37 37 35 35 36 34 32 31 28 25 26 27 25 25 24 23 25 26 19 18 19 18 17 16 14 12 13 18 20 21 22 25 25
38 39 35 28 31 31 37 41 40 36 41 41 42 40 36 37 39 37 37 36 36 35 35 35 32 29 28 28 29 29 27 28 27 21 20 22 23 23 22 20 19 17 16 17 16 16 19 21 22
39 39 36 30 35 36 39 43 39 37 36 40 40 40 42 39 39 38 37 38 37 36 36 35 35 34 33 33 34 33 32 31 27 25 27 27 26 26 25 25 24 23 20 20 19 19 17 14 22
40 42 36 37 36 41 38 38 39 37 36 36 41 44 43 41 38 39 38 40 41 40 38 37 36 37 37 38 38 37 36 34 30 30 30 30 29 29 29 29 28 27 26 25 24 24 22 21 18
47 41 39 38 38 43 39 39 40 40 39 32 42 44 44 40 39 41 42 42 43 43 40 39 39 40 40 40 40 39 40 37 35 34 33 33 33 32 31 31 31 30 30 29 28 28 27 27 26
47 39 39 39 41 40 42 39 37 44 36 34 41 46 45 41 41 43 42 43 42 41 41 41 41 42 42 43 42 42 42 41 39 38 37 36 36 35 34 33 33 34 34 33 32 32 31 30 30
43 44 41 39 41 37 41 41 46 36 36 42 43 43 46 43 42 43 43 43 44 44 44 43 42 43 42 43 44 43 44 44 43 43 41 40 39 37 36 36 36 36 36 36 36 35 35 35 34
50 48 48 46 35 36 40 44 42 37 43 45 45 44 43 44 45 43 41 42 44 44 45 45 45 45 45 45 45 45 45 45 45 44 43 43 42 40 39 39 38 38 38 38 37 37 37 38 38
53 54 52 46 40 42 48 49 37 39 43 44 46 50 49 46 47 47 45 41 42 43 42 43 43 44 45 46 47 47 46 46 45 45 45 45 45 44 43 42 40 40 40 39 39 39 38 38 38
56 54 51 50 45 50 52 53 40 42 44 43 44 48 52 52 52 50 51 47 44 44 44 43 43 44 44 45 46 48 48 47 47 47 47 47 47 46 45 44 43 42 42 42 41 41 41 40 40
51 54 55 55 51 57 54 51 46 44 46 44 44 46 48 46 45 47 48 48 49 49 50 48 47 45 44 43 44 45 46 48 49 50 50 49 49 48 47 47 47 46 46 45 45 44 43 43 43
58 60 60 56 54 56 53 52 50 42 49 49 47 46 46 43 42 43 42 43 45 46 48 48 48 48 48 47 45 45 46 48 50 51 51 51 51 51 51 51 50 50 50 49 49 48 47 46 45
54 56 56 53 51 52 54 55 49 43 47 48 46 45 41 41 41 41 41 43 44 45 45 46 49 50 49 49 50 51 50 48 48 49 51 52 53 53 54 54 53 53 52 51 50 49 49 48 48
44 46 47 49 49 52 54 53 44 41 42 40 38 37 39 39 40 39 38 38 40 42 42 42 43 45 47 49 51 51 50 48 49 51 53 55 56 56 56 55 53 54 56 52 52 53 53 52 53
32 32 31 33 36 38 40 45 39 35 34 35 35 35 36 38 37 34 35 36 39 39 39 40 41 42 44 46 47 48 49 50 52 52 54 55 56 56 56 56 58 57 56 58 59 59 58 57 56
36 34 33 32 32 34 35 39 38 32 34 35 34 33 33 34 35 36 37 37 38 39 40 40 42 43 46 47 47 47 48 50 51 52 53 55 56 57 59 60 60 59 58 59 60 59 59 59 59
43 44 42 41 40 43 38 38 41 37 34 33 32 32 34 35 36 37 38 40 40 40 42 44 45 46 47 48 49 51 52 53 55 56 57 57 57 58 58 59 60 60 61 61 62 62 63 63 63
46 45 46 48 49 49 44 39 44 43 41 40 40 41 38 38 39 41 42 43 43 42 46 50 50 51 52 53 54 55 55 56 58 59 61 62 62 63 63 64 65 65 65 65 65 65 65 65 65
47 45 45 48 47 44 45 46 44 42 38 35 34 36 37 37 38 40 41 43 46 48 50 48 50 54 56 56 58 59 60 61 61 63 64 65 66 67 68 69 69 69 69 68 69 70 71 71 70
41 43 45 46 48 47 44 42 39 37 36 37 39 39 39 39 41 44 45 45 47 48 49 50 50 50 52 55 57 58 60 62 63 65 66 67 67 68 69 69 70 70 72 71 70 69 69 69 69
39 36 35 35 37 40 40 39 38 37 38 39 39 39 41 42 43 43 43 44 46 47 49 51 50 51 52 53 55 57 59 61 62 63 64 66 67 67 67 69 70 69 70 69 69 68 67 67 67
40 39 39 39 39 40 41 40 39 38 39 40 41 42 43 44 43 42 42 41 43 43 45 46 47 49 51 51 54 55 56 57 56 54 52 51 53 55 56 57 60 61 62 61 60 61 61 60 60
38 36 36 37 39 38 37 38 37 39 40 40 41 42 43 44 43 41 40 40 38 41 42 43 46 47 47 49 50 53 54 55 54 53 49 52 51 52 52 57 58 58 57 58 58 60 62 62 62
Wind_Direction
255 259 261 262 265 261 240 252 254 246 244 247 253 251 244 246 247 251 256 252 250 251 252 252 252 252 253 256 257 266 279 297 317 327 297 249 239 239 235 218 199 209 213 212 212 221 235 252 241
261 262 263 264 263 259 251 253 257 263 272 260 251 250 254 256 257 256 252 249 247 246 250 252 250 252 255 259 259 267 278 296 316 328 319 275 253 248 241 231 232 242 232 231 226 266 256 186 203
262 265 266 265 264 271 254 264 255 254 256 251 250 253 251 253 256 255 249 246 249 249 250 251 254 253 254 260 261 263 269 285 297 308 303 282 274 241 230 226 220 224 231 247 238 192 187 184 181
263 262 263 266 269 266 264 258 266 257 248 250 254 249 254 249 249 252 252 250 251 251 251 253 255 255 254 256 258 261 261 263 262 253 251 263 244 232 228 225 224 223 214 223 198 204 209 205 176
267 266 266 266 270 269 266 262 265 266 253 253 252 253 249 251 247 251 255 256 254 253 254 252 254 257 257 258 260 262 258 252 246 238 234 229 228 221 224 230 230 232 233 232 239 229 226 210 203
271 273 268 270 270 272 275 271 264 259 254 252 252 256 251 246 250 250 251 254 256 257 255 254 253 254 258 258 259 261 259 248 245 236 234 227 223 227 225 222 229 229 238 240 238 238 232 221 227
274 274 275 275 278 270 267 263 263 267 266 251 250 255 257 253 254 255 252 253 254 254 257 255 254 255 257 258 257 256 256 249 243 240 236 237 230 227 231 230 227 232 236 239 238 240 243 241 242
271 276 278 280 279 268 263 259 262 262 263 261 252 249 250 253 249 251 253 251 253 255 255 256 255 254 254 256 258 255 252 248 247 248 244 246 243 233 228 227 231 229 226 225 236 240 233 237 244
271 276 283 283 272 266 258 263 265 268 269 268 266 260 252 247 253 252 254 254 255 255 257 258 258 256 254 255 255 252 249 249 251 262 253 243 244 243 240 236 233 231 226 225 227 237 240 240 240
274 277 279 272 261 261 258 263 262 259 261 265 269 266 255 246 248 252 251 254 255 253 252 255 257 257 254 252 253 253 250 251 251 250 248 245 241 243 245 244 242 241 241 235 231 236 230 231 228
274 273 268 265 264 264 261 260 263 258 250 250 255 260 261 257 250 252 249 249 252 251 250 248 250 252 253 252 251 253 253 252 248 248 249 249 247 243 242 245 245 244 243 240 237 234 233 232 230
271 268 263 259 261 262 261 260 262 260 252 245 251 255 257 257 256 253 252 250 251 254 253 251 249 250 250 251 252 252 253 250 249 246 246 247 247 247 245 245 248 248 248 247 243 238 233 234 234
275 279 268 260 256 257 263 263 260 259 267 254 245 253 254 253 252 253 251 252 253 255 256 255 253 251 250 251 253 252 254 253 250 249 246 246 247 248 249 247 245 247 248 248 249 249 246 241 238
273 271 269 268 261 261 262 261 259 255 257 259 252 246 254 256 252 250 254 253 251 250 251 252 252 253 253 252 252 252 253 253 252 250 250 248 248 248 247 249 250 250 249 249 249 249 249 248 246
271 271 271 265 268 265 256 255 257 257 251 253 258 256 252 254 256 253 248 250 253 252 252 252 252 250 249 250 251 251 253 254 253 252 252 252 250 250 249 248 249 251 252 252 251 250 250 249 249
268 268 269 272 264 256 259 261 255 250 250 250 252 255 253 249 250 254 254 249 248 252 253 251 251 251 249 248 249 250 251 252 253 252 252 252 251 251 251 251 251 251 251 252 253 254 253 252 252
266 269 271 269 266 261 256 259 257 250 251 250 251 253 252 250 249 251 253 252 250 250 251 252 252 251 251 250 249 249 250 250 250 250 250 250 250 251 251 252 253 253 253 253 253 253 254 255 254
270 263 257 255 254 255 258 261 258 253 253 253 250 249 249 250 250 251 253 254 253 252 252 251 250 250 250 251 251 251 251 251 250 251 250 249 249 250 251 251 251 251 252 253 254 254 253 252 253
259 259 260 259 256 257 256 255 251 255 255 253 252 249 250 255 252 248 247 245 247 248 248 248 248 247 248 249 250 248 247 247 248 248 248 248 248 249 250 251 251 253 253 253 254 255 255 255 255
261 260 260 260 258 257 255 254 254 250 251 252 251 252 247 244 244 247 245 244 244 244 244 244 246 248 247 246 246 246 246 247 247 248 248 249 250 250 251 251 251 252 253 254 256 257 258 258 259
264 262 259 258 255 255 257 257 255 247 245 244 247 248 246 243 241 239 244 247 245 244 245 245 244 245 246 248 249 249 250 249 248 246 246 246 247 249 250 251 251 253 254 255 256 258 259 258 258
264 263 259 255 251 248 249 250 244 239 238 239 243 246 247 248 249 246 241 242 247 248 245 245 245 245 245 245 246 247 248 249 250 250 250 249 249 250 251 251 254 256 256 255 256 256 257 256 256
262 253 250 247 246 244 243 248 242 249 247 244 243 246 247 247 249 252 251 250 248 250 251 249 248 247 247 247 246 246 247 248 249 250 251 251 251 251 251 251 253 253 253 254 254 254 255 255 255
263 261 256 255 254 250 249 254 252 246 245 249 253 256 258 258 256 254 253 254 253 251 252 253 252 252 251 250 249 249 249 249 250 250 250 251 252 253 253 253 253 253 253 253 253 253 253 253 253
262 255 254 256 253 256 251 245 250 252 250 253 257 258 256 255 255 254 252 254 259 261 257 257 255 254 252 251 251 253 253 252 252 252 253 252 251 252 252 253 254 254 254 254 254 255 256 256 256
263 256 257 257 256 253 251 252 251 256 257 257 258 260 262 266 268 268 266 264 262 260 259 256 252 252 253 253 252 252 251 250 251 252 253 254 254 254 254 253 254 254 254 254 254 254 255 256 256
266 263 257 252 252 252 251 252 255 256 260 260 261 267 272 275 275 273 271 269 267 264 260 257 257 254 250 250 251 250 249 250 250 250 252 252 253 254 255 255 255 254 254 254 255 255 256 256 257
266 262 258 252 249 251 250 251 253 256 260 265 265 269 273 275 274 271 268 264 259 255 252 251 252 252 249 248 248 248 249 250 251 251 252 253 254 254 255 255 256 257 256 256 256 256 256 257 258
261 260 259 257 253 254 256 257 257 258 259 262 266 270 273 275 273 269 266 263 261 260 259 255 250 247 247 244 244 246 247 248 249 250 252 250 250 251 251 250 252 254 255 255 257 258 260 259 259
262 256 250 248 254 258 259 256 255 257 261 261 263 268 270 272 270 268 267 264 258 256 254 249 252 250 248 246 244 243 244 246 247 247 250 253 247 245 243 245 248 249 252 254 257 259 260 259 261
Height
5798 5799 5799 5799 5803 5804 5804 5804 5803 5801 5802 5806 5806 5806 5806 5806 5808 5812 5813 5815 5814 5816 5817 5818 5819 5821 5821 5822 5823 5823 5824 5824 5824 5824 5825 5826 5828 5831 5832 5835 5836 5838 5840 5841 5843 5844 5845 5845 5845
5794 5795 5795 5794 5798 5800 5802 5799 5799 5799 5799 5800 5800 5802 5801 5804 5806 5806 5809 5810 5810 5812 5814 5815 5816 5817 5818 5819 5820 5820 5821 5821 5821 5821 5822 5823 5825 5827 5828 5832 5833 5833 5832 5835 5838 5840 5842 5842 5845
5789 5790 5790 5789 5792 5797 5798 5794 5794 5795 5796 5795 5795 5796 5798 5802 5801 5801 5803 5805 5806 5808 5809 5811 5812 5813 5814 5815 5817 5817 5818 5819 5819 5820 5821 5821 5822 5823 5826 5827 5830 5832 5832 5834 5835 5838 5839 5840 5843
5784 5784 5784 5783 5788 5792 5791 5791 5784 5788 5791 5790 5790 5791 5794 5796 5797 5795 5797 5801 5802 5803 5805 5807 5807 5809 5810 5812 5813 5814 5815 5816 5817 5818 5819 5820 5820 5822 5824 5825 5827 5829 5829 5831 5833 5836 5838 5839 5841
5779 5779 5777 5778 5784 5786 5784 5786 5781 5781 5782 5785 5784 5784 5788 5790 5791 5791 5794 5796 5796 5798 5800 5802 5803 5803 5806 5808 5809 5810 5812 5813 5814 5815 5816 5816 5818 5819 5821 5822 5823 5825 5826 5828 5830 5833 5836 5838 5840
5772 5772 5770 5773 5777 5779 5781 5778 5774 5770 5773 5778 5779 5778 5782 5785 5785 5786 5789 5790 5791 5793 5794 5796 5798 5799 5801 5803 5804 5805 5808 5809 5810 5811 5812 5814 5814 5816 5818 5819 5820 5822 5823 5825 5828 5831 5833 5835 5839
5764 5762 5762 5766 5773 5773 5773 5769 5767 5766 5764 5771 5773 5771 5776 5781 5780 5780 5783 5784 5785 5787 5788 5790 5793 5795 5796 5798 5800 5801 5803 5806 5806 5806 5808 5811 5813 5815 5816 5816 5817 5819 5821 5821 5823 5827 5830 5832 5835
5755 5752 5755 5760 5765 5768 5764 5758 5759 5761 5759 5760 5761 5764 5772 5773 5772 5773 5775 5777 5778 5781 5782 5784 5787 5790 5791 5792 5794 5795 5798 5800 5802 5802 5806 5808 5809 5811 5812 5814 5814 5815 5818 5820 5820 5822 5826 5828 5831
5746 5745 5748 5755 5753 5756 5753 5750 5751 5754 5751 5752 5753 5759 5763 5765 5765 5768 5769 5770 5773 5776 5777 5778 5781 5784 5786 5788 5788 5789 5792 5793 5796 5801 5803 5803 5804 5805 5808 5810 5811 5813 5815 5818 5819 5820 5821 5823 5825
5737 5737 5740 5745 5742 5741 5742 5741 5744 5746 5747 5745 5746 5748 5751 5755 5758 5761 5763 5763 5765 5768 5771 5773 5775 5778 5779 5781 5781 5783 5785 5787 5792 5795 5795 5797 5799 5801 5802 5804 5807 5809 5810 5812 5814 5817 5819 5820 5823
5728 5726 5731 5732 5733 5730 5733 5733 5732 5735 5737 5740 5737 5736 5739 5746 5751 5752 5754 5756 5757 5759 5763 5766 5768 5770 5771 5772 5774 5776 5779 5782 5786 5788 5789 5791 5794 5796 5797 5799 5801 5803 5805 5808 5810 5812 5813 5817 5818
5714 5716 5719 5721 5721 5719 5722 5724 5724 5723 5726 5733 5728 5727 5729 5735 5739 5742 5745 5747 5749 5751 5755 5758 5760 5762 5764 5765 5767 5770 5771 5775 5778 5779 5783 5784 5787 5789 5791 5793 5796 5797 5799 5801 5804 5807 5809 5811 5813
5704 5711 5709 5708 5708 5710 5710 5713 5716 5712 5718 5722 5719 5718 5721 5725 5728 5730 5734 5737 5741 5744 5746 5749 5751 5753 5755 5758 5760 5762 5763 5766 5770 5772 5774 5777 5779 5781 5784 5786 5788 5790 5793 5795 5797 5800 5802 5805 5808
5696 5695 5699 5699 5699 5701 5699 5702 5699 5711 5711 5706 5707 5710 5710 5715 5718 5720 5723 5726 5729 5732 5735 5738 5741 5744 5747 5749 5751 5754 5755 5757 5760 5764 5766 5768 5772 5774 5776 5778 5780 5783 5785 5788 5790 5793 5796 5799 5801
5682 5683 5683 5686 5694 5693 5689 5687 5691 5698 5696 5697 5699 5699 5703 5704 5705 5708 5713 5716 5717 5720 5723 5727 5730 5733 5736 5738 5741 5743 5746 5748 5751 5754 5758 5760 5763 5766 5769 5770 5772 5775 5777 5780 5783 5785 5788 5791 5794
5670 5670 5671 5677 5680 5680 5676 5678 5686 5682 5681 5686 5688 5687 5690 5694 5695 5696 5701 5706 5707 5709 5712 5716 5718 5721 5725 5728 5730 5733 5735 5737 5741 5744 5748 5750 5753 5756 5759 5762 5765 5767 5770 5772 5775 5777 5780 5783 5785
5656 5659 5661 5661 5666 5661 5661 5665 5673 5671 5670 5672 5674 5675 5677 5680 5683 5686 5687 5693 5697 5699 5702 5705 5707 5710 5714 5717 5720 5722 5724 5727 5730 5732 5736 5740 5743 5745 5749 5752 5755 5758 5760 5763 5766 5768 5771 5774 5776
5644 5640 5641 5642 5647 5643 5648 5655 5658 5658 5658 5659 5660 5660 5663 5668 5673 5675 5678 5682 5685 5687 5689 5693 5696 5699 5702 5705 5708 5711 5715 5717 5719 5721 5724 5728 5731 5734 5737 5741 5744 5746 5749 5752 5755 5759 5762 5765 5767
5623 5623 5625 5628 5629 5630 5635 5638 5642 5645 5643 5646 5648 5650 5654 5657 5660 5663 5665 5668 5671 5673 5676 5679 5682 5686 5690 5693 5696 5699 5701 5704 5706 5709 5713 5716 5719 5723 5726 5729 5732 5735 5738 5741 5744 5747 5750 5754 5756
5610 5609 5613 5615 5615 5615 5618 5622 5628 5628 5630 5633 5635 5638 5643 5646 5649 5649 5652 5655 5659 5661 5663 5666 5670 5674 5677 5680 5682 5685 5688 5692 5696 5699 5702 5705 5708 5710 5713 5716 5720 5723 5726 5730 5732 5736 5739 5742 5745
5597 5597 5600 5601 5602 5601 5604 5608 5613 5614 5618 5621 5623 5625 5629 5633 5637 5641 5642 5643 5647 5650 5652 5655 5658 5661 5663 5666 5669 5674 5678 5681 5683 5685 5688 5691 5694 5697 5700 5704 5707 5711 5714 5717 5720 5723 5726 5730 5733
5587 5586 5588 5588 5589 5590 5592 5597 5599 5603 5608 5611 5613 5615 5618 5621 5624 5629 5632 5633 5634 5638 5641 5643 5646 5649 5650 5652 5656 5660 5664 5666 5669 5672 5675 5679 5682 5685 5688 5691 5694 5697 5700 5703 5707 5710 5713 5716 5719
5578 5578 5578 5579 5579 5581 5583 5584 5589 5594 5596 5599 5602 5605 5608 5611 5614 5617 5619 5622 5625 5628 5629 5632 5634 5636 5638 5641 5644 5647 5649 5652 5656 5659 5661 5664 5668 5671 5674 5678 5681 5683 5687 5690 5693 5696 5699 5701 5704
5567 5567 5567 5567 5568 5568 5575 5575 5576 5582 5586 5589 5592 5594 5596 5599 5602 5605 5607 5609 5612 5616 5619 5620 5621 5623 5626 5629 5631 5633 5636 5639 5641 5644 5646 5649 5653 5656 5660 5663 5666 5668 5671 5674 5677 5680 5683 5686 5688
5554 5554 5553 5555 5556 5560 5563 5565 5565 5568 5572 5576 5579 5581 5582 5584 5587 5590 5592 5594 5596 5600 5604 5606 5608 5610 5612 5614 5617 5620 5623 5625 5626 5629 5632 5634 5637 5640 5643 5646 5649 5651 5654 5657 5660 5663 5666 5669 5672
5543 5544 5544 5542 5545 5549 5551 5551 5556 5557 5560 5563 5566 5568 5569 5571 5573 5576 5578 5581 5583 5585 5587 5589 5592 5594 5596 5599 5601 5605 5608 5608 5610 5613 5615 5618 5621 5624 5626 5628 5631 5633 5636 5639 5642 5644 5648 5652 5655
5530 5531 5533 5533 5534 5536 5538 5539 5542 5545 5547 5550 5552 5554 5555 5557 5559 5561 5562 5564 5566 5569 5570 5572 5573 5576 5579 5581 5585 5588 5589 5591 5593 5596 5599 5602 5604 5607 5609 5611 5614 5616 5618 5621 5625 5628 5630 5633 5636
5517 5520 5521 5521 5522 5524 5525 5528 5529 5532 5534 5536 5538 5540 5542 5543 5544 5545 5546 5548 5550 5551 5553 5555 5557 5560 5562 5565 5568 5570 5572 5575 5577 5580 5582 5585 5587 5589 5591 5593 5596 5599 5601 5603 5606 5609 5612 5615 5618
5505 5505 5508 5510 5511 5513 5515 5517 5518 5520 5523 5525 5526 5527 5528 5530 5531 5532 5532 5533 5535 5538 5540 5541 5543 5544 5547 5549 5551 5554 5557 5559 5562 5565 5567 5568 5569 5571 5574 5576 5578 5581 5583 5586 5588 5591 5594 5597 5599
5488 5493 5496 5496 5498 5500 5503 5505 5507 5508 5510 5511 5514 5516 5515 5516 5517 5519 5520 5522 5524 5525 5527 5529 5529 5531 5533 5535 5537 5539 5542 5544 5547 5550 5551 5553 5556 5558 5558 5560 5562 5564 5567 5569 5572 5575 5577 5581 5582